Home > Weather > Saarlouis > Past weeks

Flag for Germany Past Weather in Saarlouis, Saarland, Germany — Yesterday and Last 2 Weeks

Now
77 °F

Broken clouds.


Feels Like: 79 °F
Forecast: 58 / 74 °F
Wind: 10 mph from Northwest

Location: Saarbruecken / Ensheim

Current Time: Jul 26, 2016 at 6:11:23 PM

Latest Report: Jul 26, 2016 at 5:20 PM


Visibility: N/A

Pressure: 30.09 "Hg

Humidity: 57%

Dew Point: 61 °F

Location of SaarlouisLocation

Past Weather in Saarlouis — Graph

°F

Saarlouis Temperature Yesterday

Maximum temperature yesterday: 79 °F (at 2:50 PM)
Minimum temperature yesterday: 61 °F (at 5:50 AM)
Average temperature yesterday: 70 °F

High & Low Weather Summary for the Past Weeks

 TemperatureHumidityPressure
High90 °F (Jul 20, 2:50 PM)100% (Jul 15, 12:50 AM)30.33 "Hg (Jul 15, 12:50 AM)
Low46 °F (Jul 15, 4:50 AM)31% (Jul 20, 5:50 PM)29.92 "Hg (Jul 11, 4:50 PM)
Average67 °F74%30.11 "Hg
* Reported Jul 11 4:20 PM — Jul 26 4:50 PM, Saarlouis, Weather by CustomWeather, © 2016

Note: Actual official high and low records may vary slightly from our data, if they occured in-between our weather recording intervals... More about our weather records

Advertising

Saarlouis Weather History for the Previous 24 Hours

Scroll right to see more
 ConditionsComfort  
Time TempWeatherWind HumidityBarometerVisibility
4:50 PM
Tue, Jul 26
79 °FBroken clouds.12 mph58%30.09 "HgN/A
4:20 PM79 °FBroken clouds.12 mph58%30.09 "HgN/A
3:50 PM77 °FBroken clouds.10 mph61%30.09 "HgN/A
3:20 PM79 °FBroken clouds.9 mph61%30.12 "HgN/A
2:50 PM79 °FBroken clouds.9 mph61%30.12 "HgN/A
2:20 PM79 °FScattered clouds.7 mph61%30.12 "HgN/A
1:50 PM77 °FScattered clouds.7 mph65%30.12 "HgN/A
1:20 PM75 °FScattered clouds.6 mph69%30.12 "HgN/A
12:50 PM75 °FSprinkles. Scattered clouds.9 mph69%30.12 "HgN/A
12:20 PM79 °FScattered clouds.6 mph58%30.12 "HgN/A
11:50 AM77 °FScattered clouds.5 mph61%30.12 "HgN/A
11:20 AM77 °FScattered clouds.5 mph61%30.15 "HgN/A
10:50 AM75 °FScattered clouds.1 mph69%30.15 "HgN/A
10:20 AM73 °FPassing clouds.2 mph74%30.15 "HgN/A
9:50 AM72 °FPassing clouds.3 mph73%30.15 "HgN/A
9:20 AM72 °FSunny.3 mph73%30.15 "Hg10 mi
8:50 AM70 °FPassing clouds.3 mph83%30.15 "HgN/A
8:20 AM68 °FSunny.No wind83%30.12 "Hg10 mi
7:50 AM64 °FSunny.1 mph94%30.12 "Hg10 mi
7:20 AM64 °FSunny.No wind94%30.12 "Hg10 mi
6:50 AM61 °FClear.No wind94%30.12 "Hg10 mi
6:20 AM59 °FFog.No wind100%30.12 "HgN/A
5:50 AM61 °FFog.No wind94%30.12 "HgN/A
5:20 AM61 °FClear.No wind94%30.12 "Hg10 mi
4:50 AM61 °FClear.No wind94%30.12 "Hg10 mi
4:20 AM61 °FClear.No wind94%30.12 "Hg10 mi
3:50 AM61 °FClear.No wind94%30.12 "Hg10 mi
3:20 AM63 °FClear.No wind88%30.12 "Hg10 mi
2:50 AM63 °FClear.No wind88%30.12 "Hg10 mi
2:20 AM63 °FClear.No wind94%30.12 "Hg10 mi
1:50 AM63 °FClear.No wind94%30.15 "Hg10 mi
1:20 AM64 °FClear.No wind88%30.15 "Hg10 mi
12:50 AM64 °FClear.No wind88%30.15 "Hg10 mi
12:20 AM64 °FClear.No wind88%30.15 "Hg10 mi
11:50 PM
Mon, Jul 25
66 °FClear.3 mph83%30.15 "Hg10 mi
11:20 PM66 °FPassing clouds.3 mph83%30.15 "HgN/A
10:50 PM68 °FPassing clouds.6 mph78%30.12 "HgN/A
10:20 PM68 °FPassing clouds.5 mph78%30.15 "HgN/A
9:50 PM68 °FScattered clouds.6 mph78%30.12 "HgN/A
9:20 PM70 °FScattered clouds.5 mph69%30.12 "HgN/A
8:50 PM72 °FScattered clouds.5 mph69%30.12 "HgN/A
8:20 PM73 °FPartly sunny.6 mph65%30.12 "HgN/A
7:50 PM75 °FPartly sunny.9 mph61%30.12 "HgN/A
7:20 PM77 °FPartly sunny.10 mph54%30.09 "HgN/A
6:50 PM77 °FPartly sunny.8 mph57%30.09 "HgN/A
6:20 PM79 °FPassing clouds.10 mph54%30.09 "HgN/A
Weather by CustomWeather, © 2016

See weather overviewHow to use our weather pages